Terug naar catalogus

CZ-6A DEB

ActiefPO
NORAD 64641·DEBRIS·🇨🇳 China

Gelanceerd Aug 6, 2024 vanaf Taiyuan Satellite Launch Center

Loading…

Volgende Passages (komende 24 uur)

TLE

VersSource: Space-Track

Epoch: Sep 13, 2026, 06:14 UTC

1 64641U 24140AEF 26256.26023661  .00001127  00000-0  64307-3 0  9993
2 64641  88.8657 255.0317 0117503 335.1393  24.4155 14.05671954106877

Volg CZ-6A DEB in realtime met AllMySat

Download on the App Store